EN

Hourly Weather Qala i Naw

Today, 2 March, Tuesday

Time Temperature Precipitation Wind Pressure Humidity
00:00 +12°C° 0 mm 0 mps 683 mmHg 37%
01:00 +12°C° 0 mm 0 mps 683 mmHg 37%
02:00 +13°C° 0 mm 1 mps 683 mmHg 40%
03:00 +12°C° 0 mm 1 mps 682 mmHg 43%
04:00 +12°C° 0 mm 1 mps 682 mmHg 46%
05:00 +12°C° 0 mm 2 mps 683 mmHg 50%
06:00 +10°C° 0 mm 2 mps 683 mmHg 54%
07:00 +10°C° 0 mm 2 mps 683 mmHg 58%
08:00 +12°C° 0 mm 2 mps 684 mmHg 56%
09:00 +12°C° 0 mm 2 mps 684 mmHg 55%
10:00 +13°C° 0 mm 2 mps 684 mmHg 51%
11:00 +14°C° 0 mm 2 mps 684 mmHg 49%
12:00 +13°C° 0 mm 3 mps 684 mmHg 48%
13:00 +14°C° 0 mm 3 mps 684 mmHg 46%
14:00 +14°C° 0 mm 3 mps 683 mmHg 47%
15:00 +14°C° 0 mm 3 mps 683 mmHg 48%
16:00 +14°C° 0 mm 3 mps 683 mmHg 50%
17:00 +14°C° 0 mm 2 mps 683 mmHg 55%
18:00 +13°C° 0 mm 2 mps 683 mmHg 59%
19:00 +12°C° 0 mm 2 mps 683 mmHg 64%
20:00 +12°C° 0 mm 2 mps 683 mmHg 67%
21:00 +11°C° 0 mm 1 mps 683 mmHg 69%
22:00 +10°C° 0 mm 1 mps 683 mmHg 72%
23:00 +10°C° 0 mm 1 mps 683 mmHg 72%

Tomorrow, 3 March, Wednesday

Time Temperature Precipitation Wind Pressure Humidity
00:00 +9°C° 0 mm 1 mps 683 mmHg 72%
01:00 +9°C° 0 mm 1 mps 683 mmHg 72%
02:00 +9°C° 0 mm 1 mps 682 mmHg 73%
03:00 +7°C° 0 mm 0 mps 682 mmHg 75%
04:00 +7°C° 0 mm 0 mps 682 mmHg 76%
05:00 +7°C° 0 mm 0 mps 682 mmHg 76%
06:00 +7°C° 0 mm 0 mps 682 mmHg 75%
07:00 +7°C° 0 mm 0 mps 682 mmHg 75%
08:00 +9°C° 0 mm 0 mps 683 mmHg 69%
09:00 +10°C° 0 mm 0 mps 683 mmHg 64%
10:00 +12°C° 0 mm 1 mps 683 mmHg 58%
11:00 +13°C° 0 mm 1 mps 682 mmHg 54%
12:00 +14°C° 0 mm 1 mps 682 mmHg 51%
13:00 +16°C° 0 mm 2 mps 682 mmHg 47%
14:00 +16°C° 0 mm 2 mps 682 mmHg 46%
15:00 +16°C° 0 mm 2 mps 681 mmHg 45%
16:00 +16°C° 0 mm 2 mps 681 mmHg 44%
17:00 +15°C° 0 mm 1 mps 681 mmHg 49%
18:00 +14°C° 0 mm 1 mps 681 mmHg 55%
19:00 +13°C° 0 mm 1 mps 681 mmHg 60%
20:00 +13°C° 0 mm 1 mps 681 mmHg 59%
21:00 +13°C° 0 mm 1 mps 681 mmHg 58%
22:00 +12°C° 0 mm 1 mps 680 mmHg 57%
23:00 +12°C° 0 mm 1 mps 680 mmHg 56%

Day after tomorrow, 4 March, Thursday

Time Temperature Precipitation Wind Pressure Humidity
00:00 +12°C° 0 mm 1 mps 680 mmHg 55%
01:00 +12°C° 0 mm 1 mps 680 mmHg 55%
02:00 +11°C° 0 mm 1 mps 680 mmHg 54%
03:00 +11°C° 0 mm 1 mps 680 mmHg 54%
04:00 +11°C° 0 mm 1 mps 679 mmHg 53%
05:00 +11°C° 0 mm 1 mps 680 mmHg 52%
06:00 +12°C° 0 mm 1 mps 680 mmHg 52%
07:00 +12°C° 0 mm 1 mps 681 mmHg 51%
08:00 +14°C° 0 mm 2 mps 681 mmHg 43%
09:00 +17°C° 0 mm 3 mps 682 mmHg 35%
10:00 +19°C° 0 mm 3 mps 683 mmHg 27%
11:00 +20°C° 0 mm 4 mps 683 mmHg 23%
12:00 +21°C° 0 mm 4 mps 683 mmHg 20%
13:00 +21°C° 0 mm 5 mps 683 mmHg 17%
14:00 +20°C° 0 mm 6 mps 683 mmHg 24%
15:00 +18°C° 0 mm 7 mps 683 mmHg 31%
16:00 +17°C° 0 mm 8 mps 683 mmHg 38%
17:00 +15°C° 0 mm 7 mps 684 mmHg 45%
18:00 +13°C° 0 mm 6 mps 684 mmHg 51%
19:00 +10°C° 0 mm 5 mps 685 mmHg 58%
20:00 +9°C° 0 mm 5 mps 686 mmHg 59%
21:00 +8°C° 0 mm 4 mps 686 mmHg 61%
22:00 +8°C° 0 mm 3 mps 686 mmHg 63%
23:00 +7°C° 0 mm 3 mps 686 mmHg 67%

5 March, Friday

Time Temperature Precipitation Wind Pressure Humidity
00:00 +7°C° 0 mm 2 mps 686 mmHg 71%
01:00 +7°C° 0 mm 1 mps 686 mmHg 75%
02:00 +7°C° 0 mm 1 mps 685 mmHg 77%
03:00 +6°C° 0 mm 0 mps 685 mmHg 78%
04:00 +5°C° 0 mm 0 mps 684 mmHg 79%
05:00 +6°C° 0 mm 0 mps 684 mmHg 77%
06:00 +6°C° 0 mm 0 mps 684 mmHg 74%
07:00 +6°C° 0 mm 0 mps 684 mmHg 72%
08:00 +9°C° 0 mm 1 mps 684 mmHg 65%
09:00 +11°C° 0 mm 1 mps 684 mmHg 57%
10:00 +13°C° 0 mm 1 mps 684 mmHg 50%
11:00 +14°C° 0 mm 1 mps 684 mmHg 46%
12:00 +16°C° 0 mm 1 mps 683 mmHg 41%
13:00 +18°C° 0 mm 1 mps 683 mmHg 37%
14:00 +18°C° 0 mm 2 mps 682 mmHg 37%
15:00 +18°C° 0 mm 3 mps 682 mmHg 38%
16:00 +18°C° 0 mm 4 mps 681 mmHg 39%
17:00 +17°C° 0.1 mm 4 mps 681 mmHg 46%
18:00 +15°C° 0.1 mm 4 mps 681 mmHg 53%
19:00 +14°C° 0.1 mm 3 mps 681 mmHg 60%
20:00 +14°C° 0.1 mm 5 mps 680 mmHg 58%
21:00 +14°C° 0.1 mm 6 mps 680 mmHg 55%
22:00 +15°C° 0.1 mm 8 mps 680 mmHg 52%
23:00 +13°C° 0.2 mm 9 mps 679 mmHg 54%

6 March, Saturday

Time Temperature Precipitation Wind Pressure Humidity
00:00 +13°C° 0.2 mm 9 mps 678 mmHg 55%
01:00 +13°C° 0.2 mm 9 mps 677 mmHg 57%
02:00 +13°C° 0.1 mm 8 mps 677 mmHg 58%
03:00 +14°C° 0.1 mm 7 mps 676 mmHg 60%
04:00 +13°C° 0.1 mm 6 mps 676 mmHg 61%
05:00 +11°C° 0.4 mm 6 mps 676 mmHg 66%
06:00 +10°C° 0.4 mm 6 mps 677 mmHg 71%
07:00 +10°C° 0.4 mm 6 mps 677 mmHg 75%
08:00 +8°C° 0.2 mm 6 mps 678 mmHg 80%
09:00 +7°C° 0.2 mm 5 mps 678 mmHg 85%
10:00 +6°C° 0.2 mm 5 mps 679 mmHg 89%
11:00 +5°C° 0.1 mm 5 mps 679 mmHg 90%
12:00 +5°C° 0.1 mm 4 mps 679 mmHg 90%
13:00 +4°C° 0.1 mm 4 mps 679 mmHg 90%
14:00 +4°C° 0.1 mm 4 mps 679 mmHg 89%
15:00 +4°C° 0.1 mm 4 mps 679 mmHg 89%
16:00 +5°C° 0.1 mm 4 mps 680 mmHg 88%
17:00 +4°C° 0.2 mm 4 mps 680 mmHg 88%
18:00 +4°C° 0.2 mm 3 mps 681 mmHg 89%
19:00 +3°C° 0.2 mm 3 mps 681 mmHg 90%
20:00 +4°C° 0.2 mm 2 mps 681 mmHg 89%
21:00 +4°C° 0.2 mm 2 mps 682 mmHg 89%
22:00 +5°C° 0.2 mm 1 mps 682 mmHg 88%
23:00 +5°C° 0 mm 1 mps 682 mmHg 88%

7 March, Sunday

Time Temperature Precipitation Wind Pressure Humidity
00:00 +3°C° 0 mm 0 mps 682 mmHg 89%
01:00 +3°C° 0 mm 0 mps 681 mmHg 89%
02:00 +3°C° 0 mm 0 mps 681 mmHg 89%
03:00 +3°C° 0 mm 0 mps 681 mmHg 89%
04:00 +4°C° 0 mm 1 mps 680 mmHg 89%
05:00 +4°C° 0 mm 1 mps 680 mmHg 86%
06:00 +3°C° 0 mm 0 mps 681 mmHg 84%
07:00 +4°C° 0 mm 0 mps 681 mmHg 81%
08:00 +7°C° 0 mm 1 mps 681 mmHg 72%
09:00 +8°C° 0 mm 1 mps 681 mmHg 63%
10:00 +10°C° 0 mm 1 mps 680 mmHg 54%
11:00 +11°C° 0 mm 1 mps 680 mmHg 49%
12:00 +13°C° 0 mm 1 mps 679 mmHg 44%
13:00 +14°C° 0 mm 1 mps 679 mmHg 39%
14:00 +15°C° 0 mm 1 mps 678 mmHg 38%
15:00 +15°C° 0 mm 1 mps 678 mmHg 37%
16:00 +16°C° 0 mm 1 mps 678 mmHg 36%
17:00 +15°C° 0 mm 1 mps 678 mmHg 41%
18:00 +13°C° 0 mm 1 mps 678 mmHg 47%
19:00 +11°C° 0 mm 0 mps 678 mmHg 53%
20:00 +12°C° 0 mm 1 mps 678 mmHg 51%
21:00 +11°C° 0 mm 1 mps 678 mmHg 49%
22:00 +10°C° 0 mm 2 mps 678 mmHg 48%
23:00 +10°C° 0 mm 2 mps 678 mmHg 46%
Show more

We Need Your Consent

Meteoprog and our Service Providers may store and access personal data such as cookies, device identifiers or other similar technologies on your device and process such data to personalise content and ads, as well as provide social media features and to analyse the traffic.

  • Store and/or access information on your device

    Cookies, device identifiers or other information can be stored or accessed on your device for the purposes indicated above.

  • Personalised ads and content, ad and content measurement, audience insights, and products development

    Ads and content can be personalised based on a profile. More data can be added to better personalise ads and content. Ad and content performance can be measured. Insights about the audience who saw the ads and content can be derived. Such data can be used to develop or improve user’s experience, systems and software.

By clicking ‘I Agree’ you will allow the use of indicated cookies, device identifiers, web beacons or other similar technologies. Your settings can be changed in the browser on your device.

For certain purposes, legitimate interests may be relied on, rather than consent. You can read more about this in our Privacy and Cookie Policy.